Location: Kapuskasing
(49.3803°N, 82.4001°W)
Time: 08:02:01
(UTC-04:00)

RS-44 - Visible Passes

Search period start: 17 July 2025 00:00
Search period end: 27 July 2025 00:00
Orbit: 1175 x 1510 km, 82.5° (Epoch: 16 July)

Date Brightness Start Highest point End Pass type
(mag) Time Alt. Az. Time Alt. Az. Time Alt. Az.
17 Jul ? 04:07:39 10° NNE 04:12:19 16° NE 04:16:47 10° E visible
17 Jul ? 22:36:01 10° WNW 22:40:04 14° NW 22:44:05 10° NNW visible
18 Jul ? 04:30:48 10° N 04:36:56 23° NE 04:42:44 10° ESE visible
19 Jul ? 04:54:13 10° N 05:01:20 32° ENE 05:07:59 10° SE visible
20 Jul ? 03:26:46 10° NNE 03:29:23 12° NE 03:31:58 10° ENE visible
21 Jul ? 03:49:15 10° NNE 03:54:10 17° NE 03:58:53 10° E visible
21 Jul ? 22:18:56 10° WNW 22:22:03 12° NW 22:25:09 10° NNW visible
22 Jul ? 04:12:27 10° N 04:18:43 24° ENE 04:24:38 10° ESE visible
23 Jul ? 04:35:54 10° N 04:43:03 35° ENE 04:49:45 10° SE visible
24 Jul ? 03:08:08 10° NNE 03:11:17 13° NE 03:14:21 10° ENE visible
24 Jul ? 04:59:30 10° N 05:07:12 50° ENE 05:14:20 10° SE visible
25 Jul ? 03:30:50 10° N 03:36:00 18° NE 03:40:55 10° E visible
25 Jul ? 22:02:20 10° NW 22:04:03 11° NW 22:05:43 10° NNW visible
26 Jul ? 03:54:05 10° N 04:00:28 26° ENE 04:06:31 10° ESE visible
